Regional Weather Roundup
Issued by NWS

Home | Current Version | Previous Version | Text Only | Print | Product List | Glossary On
Versions: 1 2 3 4 5 6 7 8 9 10 11 12 13 14 15 16 17 18 19 20 21 22 23 24 25 26 27 28 29 30 31 32 33 34 35 36 37 38 39 40 41 42 43 44 45 46 47 48 49 50
000
ASUS43 KMKX 230659
RWRWI

WISCONSIN REGIONAL WEATHER ROUNDUP
NATIONAL WEATHER SERVICE MILWAUKEE/SULLIVAN WI
100 AM CST MON JAN 23 2017

NOTE: "FAIR" INDICATES FEW OR NO CLOUDS BELOW 12,000 FEET WITH NO
SIGNIFICANT WEATHER AND/OR OBSTRUCTIONS TO VISIBILITY.

WIZ001-002-006>008-014>016-023>028-230800-
NORTHWEST WISCONSIN

CITY           SKY/WX    TMP DP  RH WIND       PRES   REMARKS
SUPERIOR ARPT  CLOUDY    35  35  99 W5        29.74F WCI  31
ASHLAND        FOG       35  34  96 SW6       29.73F VSB 1/2 WCI  30
HAYWARD        FOG       35  34  96 CALM      29.72F VSB 1/4
SIREN          CLOUDY    35  35  99 W5        29.75F FOG     WCI  31
CUMBERLAND     FOG       32  32 100 W5        29.73F VSB 3/4 WCI  27
RICE LAKE      CLOUDY    35  35 100 W3        29.75S FOG
CHETEK         CLOUDY    35  35 100 CALM      29.75R FOG
LADYSMITH      FOG       35  35  99 CALM      29.75R VSB 3/4
EAU CLAIRE     NOT AVBL
MENOMONIE        N/A    N/A N/A N/A MISG        N/A
NEW RICHMOND   CLOUDY    34  34 100 W6        29.77R FOG     WCI  29
OSCEOLA        CLOUDY    35  35 100 W6        29.79S FOG     WCI  30
$$

WIZ003>005-009-010-017-018-230800-
NORTH CENTRAL WISCONSIN

CITY           SKY/WX    TMP DP  RH WIND       PRES   REMARKS
MANITOWISH WTR FOG       32  32 100 CALM      29.71R VSB 1
ARBOR VITAE    CLOUDY    34  33  96 CALM      29.71R
WOODRUFF       CLOUDY    34  33  96 CALM      29.71R
RHINELANDER    CLOUDY    35  33  92 CALM      29.72R
EAGLE RIVER    CLOUDY    32  32 100 CALM      29.71R
LAND O LAKES   CLOUDY    33  33 100 CALM      29.71S
PHILLIPS       CLOUDY    32  32 100 CALM      29.72R FOG
TOMAHAWK       CLOUDY    32  32  99 CALM      29.73R
MEDFORD        FOG       33  33 100 W3        29.73R VSB 1/2
MERRILL        CLOUDY    33  33 100 CALM        N/A
$$

WIZ029-030-035-036-043>047-230800-
CENTRAL WISCONSIN

CITY           SKY/WX    TMP DP  RH WIND       PRES   REMARKS
WAUSAU         CLOUDY    34  34 100 NW3       29.72R
MOSINEE        CLOUDY    34  34 100 CALM      29.74R
MARSHFIELD     CLOUDY    33  33 100 NW6       29.73R FOG     WCI  28
STEVENS POINT  FOG       33  33 100 W3        29.74S VSB 1
WAUPACA        CLOUDY    38  37  95 CALM      29.74R
WAUTOMA        FOG       35  34  96 W5        29.75S VSB 1/2 WCI  31
WISC RAPIDS    FOG       35  35 100 CALM      29.75S VSB 1/2
CAMP DOUGLAS   NOT AVBL
$$

WIZ011>013-019>022-031-037>040-048>050-230800-
NORTHEAST WISCONSIN

CITY           SKY/WX    TMP DP  RH WIND       PRES   REMARKS
ANTIGO         CLOUDY    33  33 100 CALM      29.72R
SHAWANO        CLOUDY    38  37  94 CALM      29.73S
OCONTO         CLOUDY    33  33  99 CALM      29.72S
STURGEON BAY   FOG       35  35 100 W3        29.72S VSB 3/4
GREEN BAY      CLOUDY    37  37 100 NW7       29.72F FOG     WCI  32
MANITOWOC      CLOUDY    36  36 100 MISG      29.73R FOG
APPLETON       CLOUDY    34  34 100 W7        29.71S FOG     WCI  28
CLINTONVILLE   CLOUDY    36  34  93 CALM      29.73S
OSHKOSH        CLOUDY    36  34  92 W6        29.72S FOG     WCI  31
$$

WIZ032>034-041-042-053>061-230800-
SOUTHWEST WISCONSIN

CITY           SKY/WX    TMP DP  RH WIND       PRES   REMARKS
LA CROSSE      CLOUDY    38  34  85 CALM      29.79R FOG
SPARTA         CLOUDY    34  34 100 W3        29.78S FOG
VIROQUA        CLOUDY    34  34 100 CALM      29.77R
BOSCOBEL       CLOUDY    37  35  92 CALM      29.78S
PRAIRIE DU CHI DRIZZLE   35  34  94 NW3       29.79S
PLATTEVILLE    CLOUDY    36  36 100 NW6       29.77S WCI  31
$$

WIZ056-057-062-063-064-067-068-230800-
SOUTH CENTRAL WISCONSIN

CITY           SKY/WX    TMP DP  RH WIND       PRES   REMARKS
REEDSBURG      CLOUDY    35  35 100 W5        29.75S FOG     WCI  31
BARABOO/DELLS  CLOUDY    34  34 100 NW3       29.75S FOG
LONE ROCK      CLOUDY    36  34  92 W5        29.77F WCI  32
MINERAL POINT  FOG       36  36 100 NW6       29.75F VSB 1/2 WCI  31
MADISON        FOG       36  35  96 MISG      29.75S VSB 1
MIDDLETON      CLOUDY    37  37 100 NW6       29.75S WCI  32
WATERTOWN      CLOUDY    36  36 100 CALM      29.73S FOG
MONROE         CLOUDY    36  36 100 N5        29.73S FOG     WCI  32
JANESVILLE     CLOUDY    37  37 100 N3        29.73F FOG
$$

WIZ051-052-058>065-066-070>072-230800-
SOUTHEAST WISCONSIN

CITY           SKY/WX    TMP DP  RH WIND       PRES   REMARKS
MILWAUKEE      CLOUDY    39  35  86 NW6       29.72S WCI  35
WAUKESHA       CLOUDY    34  34 100 NW6       29.73F FOG     WCI  29
MILWAUKEE/TIMM CLOUDY    36  34  93 CALM      29.73F FOG
RACINE         CLOUDY    36  34  92 NW7       29.72F FOG     WCI  30
KENOSHA        CLOUDY    37  35  92 NW8       29.71F FOG     WCI  31
FOND DU LAC    CLOUDY    36  33  89 CALM      29.73S
SHEBOYGAN      CLOUDY    36  34  92 NW3       29.71F FOG
WEST BEND      CLOUDY    36  36 100 CALM      29.72F FOG
JUNEAU         CLOUDY    35  35  99 W3        29.74S FOG
$$

LSZ147-162-230800-
LAKE SUPERIOR

STATION/POSITION TIME  TEMP    WIND        PRES    WAVE
                       AIR SEA DIR/SP/G            HT/PER
                 (UTC) (F)     (DEG/KT/KT) (MB)    (FT/S)
DEVILS ISLAND    0600   35     210/  6/  7 1007.2F
PORT WING        0630   35     210/  4/  5 1007.1S
SAXON HARBOR     0640   33     180/  3/  4 1006.8F
$$

LMZ867-665-643>646-230800-
LAKE MICHIGAN

STATION/POSITION TIME  TEMP    WIND        PRES    WAVE
                       AIR SEA DIR/SP/G            HT/PER
                 (UTC) (F)     (DEG/KT/KT) (MB)    (FT/S)
NORTHPORT PIER   0640   34        CALM     1006.4R
SISTER BAY       0605   34        CALM       N/A
KEWAUNEE LAKESHO 0624   36      CALM  /  1 1006.1
SHEBOYGAN LAKESH 0600   38     220/  5/  5 1006.8R
PORT WASHINGTON  0640   38     290/  2/  5 1007.5F
KENOSHA   LAKESH 0600   35     360/  8/  9 1006.4
$$

TC  - TEMPERATURE IN CELSIUS
VSB - VISIBILITY IN STATUTE MILES
WCI - WIND CHILL INDEX
HX  - HEAT INDEX




USA.gov is the U.S. government's official web portal to all federal, state and local government web resources and services.